Cloud_Cover
100 100 100 99 24 22 0 0 0 3 3 0 0 0 0 0 14 6 0 0 0 0 0 0 0 0 0 0 0 0 0 0 0 0 0 0 0 0 0 0 0 0 0 0 0 0 0 0 0
100 100 100 48 29 30 0 0 0 0 0 0 0 0 0 0 0 0 0 0 3 0 0 13 0 0 0 0 0 0 0 0 0 0 0 0 0 0 0 0 0 0 0 0 0 0 0 0 0
94 100 100 100 46 46 0 0 0 0 0 0 0 0 0 0 0 0 0 0 5 1 0 2 0 0 0 0 0 0 0 0 0 0 0 0 0 0 0 0 0 0 0 0 0 0 0 0 0
6 13 100 100 91 5 3 0 98 0 0 0 0 0 0 0 0 0 0 0 0 0 0 5 0 0 0 0 0 0 0 0 0 0 0 0 0 0 0 0 0 0 0 0 0 0 0 0 0
72 6 97 98 100 53 5 0 5 2 0 0 0 0 0 0 0 0 0 0 0 5 5 1 0 1 0 0 5 0 0 0 0 0 0 0 0 0 0 0 0 0 0 0 0 0 0 0 0
99 100 99 72 17 5 0 0 0 0 0 0 0 0 0 0 0 0 0 0 0 100 100 4 4 4 5 5 2 0 0 0 0 0 0 0 0 0 0 0 0 0 0 0 0 0 0 0 0
5 21 62 43 37 5 0 0 0 0 0 0 0 0 0 0 0 0 0 0 0 18 100 13 6 5 5 5 5 4 0 0 0 0 0 5 0 0 5 0 0 0 4 0 0 0 0 0 0
5 5 10 8 37 4 0 0 0 0 0 0 0 0 0 3 1 0 0 0 0 37 74 70 90 16 22 14 100 74 5 0 0 0 0 0 5 4 88 35 1 5 1 5 5 0 0 0 0
1 5 100 74 5 0 0 0 0 0 0 0 0 0 0 0 2 0 0 0 0 21 99 100 88 7 12 100 100 54 5 0 0 0 2 61 11 5 5 99 30 5 5 5 6 5 5 5 0
1 0 67 100 6 0 0 0 0 0 0 0 0 0 0 0 0 0 0 0 0 3 5 64 83 97 100 100 100 91 7 1 1 5 10 13 6 0 5 18 22 6 5 5 5 5 5 4 4
9 0 0 62 46 1 0 0 0 0 0 0 0 0 0 0 0 0 0 0 0 0 0 5 53 100 100 100 100 100 44 16 9 5 7 68 3 5 5 21 20 56 96 82 2 5 34 33 9
7 3 3 2 5 4 0 0 0 0 0 0 0 0 0 0 0 0 0 0 5 48 33 0 63 100 100 100 100 100 46 0 30 5 5 14 10 4 17 84 42 95 83 85 62 5 45 21 84
26 5 94 40 0 0 0 0 0 0 0 0 0 0 0 0 0 0 0 0 3 99 100 62 55 100 94 100 100 80 5 1 5 11 46 23 5 5 11 13 96 100 100 100 100 60 5 14 79
100 99 8 100 69 3 0 0 0 0 0 0 0 0 0 0 0 0 0 0 0 11 100 100 46 100 100 100 100 100 100 11 5 5 13 100 16 5 27 63 99 100 100 100 100 100 85 92 52
100 100 100 100 100 99 3 0 0 0 0 0 0 0 0 0 0 0 0 0 0 0 51 100 81 100 100 100 100 100 100 6 30 15 5 83 34 6 11 50 99 100 100 100 100 100 100 100 100
100 100 100 100 100 100 100 2 4 5 1 0 0 0 0 0 0 0 0 0 0 0 11 100 100 100 100 100 100 100 74 71 60 38 51 46 91 29 11 91 99 100 100 100 100 100 100 100 100
100 100 100 100 100 100 100 93 51 1 3 2 0 0 0 0 0 0 0 0 0 0 0 98 100 100 100 100 100 100 36 45 85 16 16 86 51 36 5 24 98 98 100 100 100 100 100 100 100
100 100 100 100 100 100 100 100 100 95 4 3 0 0 0 0 0 0 0 0 0 2 0 42 100 100 100 100 100 100 100 79 100 33 50 100 100 87 5 8 82 81 100 100 100 100 100 100 100
100 100 100 100 100 100 100 100 100 100 100 70 51 30 1 0 0 0 0 1 0 1 0 5 100 100 100 100 100 100 100 74 100 100 100 100 100 55 24 35 38 66 64 100 100 100 100 100 100
100 97 18 100 100 100 100 100 32 80 100 100 100 100 70 21 5 0 0 5 53 0 1 47 94 100 100 100 100 65 85 100 100 100 100 100 100 87 91 31 54 42 11 99 100 100 100 100 100
100 100 100 94 100 100 100 100 100 87 47 54 89 100 100 100 100 99 92 100 100 100 100 100 100 100 100 100 100 100 100 100 100 100 100 100 100 100 100 75 16 22 24 18 100 100 100 100 100
100 100 100 100 100 100 100 100 100 100 100 55 75 57 100 100 50 11 32 30 100 100 100 100 93 78 100 98 98 100 100 100 100 100 100 100 100 100 100 100 89 82 63 100 100 100 100 100 100
100 100 100 100 100 100 100 100 4 100 100 100 100 100 100 100 100 25 0 5 6 68 100 100 63 50 100 5 34 100 100 100 100 100 100 100 100 100 100 100 100 100 100 100 100 100 100 100 100
19 100 100 100 100 100 94 100 5 32 26 100 100 100 100 100 100 100 81 6 5 5 88 100 79 52 88 60 25 100 100 100 100 100 100 100 100 100 100 100 100 100 100 100 100 100 100 100 100
77 62 92 100 100 98 100 100 69 100 100 100 100 100 100 100 97 100 100 86 7 8 96 100 100 100 100 100 31 31 88 100 100 100 100 100 100 100 100 100 100 100 100 100 100 100 100 100 100
97 100 100 98 52 100 100 100 100 100 100 100 100 100 100 100 100 88 56 100 100 98 100 100 100 100 100 100 95 96 100 100 100 100 100 100 100 100 100 100 100 100 100 100 100 100 100 100 100
71 100 24 99 39 100 4 68 99 100 100 100 100 100 100 100 100 100 100 16 1 17 100 100 100 100 100 100 100 100 100 100 100 100 100 100 100 100 100 100 100 100 100 100 100 100 100 100 100
100 52 100 100 100 99 4 0 0 34 100 100 100 100 100 100 100 100 100 100 96 56 5 95 100 100 100 100 100 100 100 100 100 100 100 100 100 100 100 100 100 100 100 100 100 100 100 100 100
99 100 100 84 100 83 40 3 0 0 0 29 100 100 100 100 100 100 100 100 100 100 100 100 100 100 76 100 100 100 100 100 100 100 100 100 100 100 100 100 100 100 100 100 100 100 100 100 100
40 100 100 100 100 71 98 17 0 0 0 3 0 0 22 100 100 100 100 100 100 100 100 100 100 100 100 100 100 100 100 100 100 100 100 100 100 100 100 100 100 100 100 100 100 100 100 100 100